Miscellaneous Local Product
Issued by NWS North Platte, NE

Home | Current Version | Previous Version | Graphics & Text | Print | Product List | Glossary On
Versions: 1 2 3 4 5 6 7 8 9 10 11 12 13 14 15 16 17 18 19 20 21 22 23 24 25 26 27 28 29 30 31 32 33 34 35 36 37 38 39 40 41 42 43 44 45 46 47 48 49 50
000
AXUS43 KLBF 211310
MISLBF


WESTERN AND NORTH CENTRAL NEBRASKA HOURLY WEATHER ROUNDUP
NATIONAL WEATHER SERVICE NORTH PLATTE NE
800 AM CDT SUN SEP 21 2014

***STATIONS NOT REPORTING VARIABLES SUCH AS SKY/WEATHER OR
PRESSURE ARE PROVIDED BY THE NEBRASKA DEPARTMENT OF
ROADS...RAWS...AND APRS NETWORKS...AND ARE NOT UNDER
NATIONAL WEATHER SERVICE QUALITY CONTROL***

...OBSERVATIONS IN AND NEAR THE EASTERN PANHANDLE OF NEBRASKA...

CITY           SKY/WX    TMP DP  RH WIND       PRES   REMARKS
PINE RIDGE     CLEAR     35  32  88 CALM      30.35R
CHADRON        CLEAR     40  37  89 CALM      30.35R
ALLIANCE       MOCLDY    43  39  86 N3        30.36R
SIDNEY         CLOUDY    52  46  80 CALM      30.38R
WHITECLAY        N/A     34  31  90 SE3         N/A
RUSHVILLE        N/A     38  35  90 W5          N/A  WCI  34
CRESCENT LAKE    N/A     48  44  85 CALM        N/A
LISCO            N/A     49  44  83 CALM        N/A
BIG SPRINGS      N/A     48  45  90 CALM        N/A
$$

...OBSERVATIONS IN NORTH CENTRAL NEBRASKA...

CITY           SKY/WX    TMP DP  RH WIND       PRES   REMARKS
VALENTINE      CLEAR     44  38  79 NW8       30.31R
THEDFORD       CLEAR     46  40  82 W7        30.33R
AINSWORTH      CLEAR     47  38  69 NW8       30.30R
O`NEILL        CLEAR     48  43  82 W8        30.26R
ORD            CLEAR     45  41  86 NW6       30.27R
BROKEN BOW     CLEAR     46  39  76 N6        30.28R
SPRINGVIEW       N/A     43  38  84 W3          N/A
ROSE             N/A     48  41  76 W7          N/A
NEWPORT          N/A     46  41  81 W7          N/A
COMSTOCK         N/A     51  42  70 N3          N/A
$$

...OBSERVATIONS IN SOUTHWEST NEBRASKA AND FAR NORTHEAST COLORADO...

CITY           SKY/WX    TMP DP  RH WIND       PRES   REMARKS
WRAY           CLOUDY    50  47  90 SW3       30.35R
HOLYOKE        FAIR      52  45  76 CALM      30.35R
IMPERIAL       PTCLDY    48  43  82 MISG      30.33R
OGALLALA       CLEAR     51  46  83 CALM      30.33R
NORTH PLATTE   CLEAR     42  40  92 CALM      30.31R
MCCOOK         PTCLDY    50  45  83 CALM      30.31R
LEXINGTON      CLEAR     45  43  93 NW3       30.29R
PAXTON           N/A     52  43  72 CALM        N/A
SUTHERLAND       N/A     47  39  74 CALM        N/A
BRADY            N/A     45  41  85 CALM        N/A
GOTHENBURG       N/A     48  39  72 NW7         N/A
CALLAWAY         N/A     49  41  74 NW5         N/A
$$

...SOME WEATHER OBSERVATIONS FROM AROUND THE REGION...

CITY           SKY/WX    TMP DP  RH WIND       PRES   REMARKS
DENVER         MOCLDY    58  44  60 N5        30.36R
LARAMIE        CLEAR     45  37  73 S8        30.41S
CHEYENNE       CLOUDY    54  38  54 S6        30.41R
SCOTTSBLUFF    CLEAR     47  42  83 N3        30.36R
RAPID CITY     CLEAR     42  35  76 NW7       30.34R
PIERRE         CLEAR     46  41  82 NW9       30.26R
WINNER         FAIR      48  39  71 W9        30.28R
SIOUX FALLS    CLEAR     51  44  77 NW9       30.18R
OMAHA          CLEAR     54  48  80 NW7       30.18R
GRAND ISLAND   CLEAR     49  43  80 N7        30.25R
KANSAS CITY    PTCLDY    58  53  84 W7        30.15R
WICHITA        PTCLDY    67  54  63 NE12      30.16R
HAYS           CLEAR     54  45  71 N8        30.24R
LIBERAL        CLEAR     64  54  68 NE15      30.25R
GOODLAND       MOCLDY    50  46  86 NW5       30.35R
$$



USA.gov is the U.S. government's official web portal to all federal, state and local government web resources and services.